New Kenley Weather Station. Now works across all platform including Mobile Phones. Bug reports please use the "Contact Us" link.
Thunderstorms From: 18-06-2019 18:00 Until: 19-06-2019 21:00 warning for: Thunderstorms Level: Yellow info button

Kenley Weather Cam  Kenley Weather Cam


Rain radar more information rain snow radar



Select another period ( hide this area )

Units Period Custom range Directly to
Metric English Both
Daily Weekly Monthly Yearly
use both date-selectors for a custom range
previous Day
With this date

WeatherUnderground graphs for this period ( click here )


Daily Summary for Tuesday Jun 18 2019
Time Temp. ( °C ) Dew pt. ( °C ) Wind ( km/h ) from Gust ( km/h ) Pressure ( hPa ) Humid.( % ) Rainrate ( cm )
High20,9 15,4 0,0 ( 0/0 ) 20,9 1005,3 86 1,50
Average15,9 11,8 0,0 Calm #120/120 2,7 1002,7 78 1,30
Low12,3 8,9 -   0,0 999,2 47 -
Daily Tabular details for Tuesday Jun 18 2019
Time Temp. ( °C ) Dew pt. ( °C ) Wind ( km/h ) from Gust ( km/h ) Pressure ( hPa ) Humid.( % ) Rainrate ( cm )
00:04 13,9 10,7   Calm   1005,3 81 -
00:15 13,8 10,4   Calm   1005,3 80 -
00:25 13,8 10,4   Calm   1005,3 80 -
00:35 13,7 10,4   Calm   1005,3 80 -
00:45 13,5 10,1   Calm   1005,3 80 -
00:56 13,4 10,0   Calm   1005,3 80 -
01:06 13,3 9,9   Calm   1005,3 80 -
01:16 13,2 9,8   Calm   1005,3 80 -
01:27 13,0 9,6   Calm   1004,3 80 -
01:37 12,9 9,7   Calm   1004,3 81 -
01:48 12,9 9,7   Calm   1004,3 81 -
01:58 13,0 9,6   Calm   1004,3 80 -
02:08 13,0 9,6   Calm   1004,3 80 -
02:18 12,8 9,6   Calm   1004,3 81 -
02:29 12,7 9,5   Calm   1004,3 81 -
02:39 12,6 9,4   Calm   1004,3 81 -
02:49 12,4 9,6   Calm   1004,3 83 -
02:59 12,3 9,5   Calm   1004,3 83 -
03:10 12,3 9,5   Calm   1004,3 83 -
03:20 12,5 9,5   Calm   1004,3 82 -
03:30 12,8 9,7   Calm   1004,3 81 -
03:41 12,9 9,3   Calm   1004,3 79 -
03:51 13,0 9,3   Calm   1004,3 78 -
04:01 13,0 9,3   Calm   1004,3 78 -
04:12 12,9 9,3   Calm   1004,3 79 -
04:22 12,9 9,0   Calm   1004,3 77 -
04:32 13,0 9,3   Calm   1004,3 78 -
04:42 13,0 9,3   Calm   1004,3 78 -
04:52 12,9 9,0   Calm   1003,3 77 -
05:02 12,8 9,2   Calm   1003,3 79 -
05:13 12,7 9,3   Calm   1003,3 80 -
05:23 12,5 9,5   Calm   1004,3 82 -
05:34 12,4 9,6   Calm   1004,3 83 -
05:44 12,3 9,5   Calm   1004,3 83 -
05:54 12,4 9,8   Calm   1003,3 84 -
06:05 12,5 9,9   Calm   1003,3 84 -
06:15 12,8 10,2   Calm   1003,3 84 -
06:25 12,9 10,1   Calm   1004,3 83 -
06:36 13,2 10,4   Calm   1004,3 83 -
06:46 13,5 10,5   Calm   1003,3 82 -
06:57 13,7 10,1   Calm   1004,3 79 -
07:07 13,9 10,7   Calm   1004,3 81 -
07:17 14,0 10,8   Calm   1003,3 81 -
07:28 14,1 10,7   Calm   1003,3 80 -
07:39 14,5 11,0   Calm   1003,3 79 -
07:49 14,8 10,8   Calm   1004,3 77 -
07:59 15,0 10,4   Calm   1003,3 74 -
08:09 15,2 10,8   Calm   1003,3 75 -
08:20 15,6 10,4   Calm   1004,3 71 -
08:30 16,1 10,0   Calm   1003,3 67 -
08:40 16,5 10,3   Calm   1003,3 66 -
08:50 16,9 9,8   Calm   1003,3 63 -
09:01 17,4 11,0   Calm   1003,3 66 -
09:11 17,8 11,0   Calm   1003,3 64 -
09:22 18,5 10,6   Calm   1003,3 60 -
09:32 19,7 10,0   Calm   1003,3 53 -
09:42 20,2 9,6   Calm   1003,3 50 -
09:52 19,7 9,3   Calm 12,9 1003,3 51 -
10:03 19,6 10,4   Calm 12,9 1003,3 55 -
10:13 19,8 10,8   Calm   1003,3 56 -
10:24 20,2 9,4   Calm   1003,3 50 -
10:34 20,6 8,9   Calm   1003,3 47 -
10:44 20,9 9,2   Calm   1003,3 47 -
10:55 20,9 9,4   Calm 14,5 1003,3 47 -
11:05 20,7 10,5   Calm   1003,3 52 -
11:16 20,1 10,2   Calm   1003,3 53 -
11:26 19,3 9,8   Calm 14,5 1003,3 54 -
11:37 18,4 12,3   Calm 12,9 1003,3 67 -
11:47 17,5 13,2   Calm 12,9 1003,3 76 -
11:57 17,0 13,1   Calm   1003,3 78 -
12:08 16,8 13,5   Calm   1003,3 81 0,30
12:18 17,1 14,0   Calm   1003,3 82 0,30
12:28 17,2 13,5   Calm   1002,3 79 0,30
12:38 17,4 14,1   Calm   1002,3 81 0,30
12:48 17,3 14,2   Calm   1003,3 82 0,30
12:59 17,1 14,2   Calm   1003,3 83 -
13:09 17,0 14,3   Calm   1003,3 84 -
13:19 16,6 14,1   Calm   1002,3 85 0,30
13:30 16,8 14,4   Calm 17,7 1002,3 86 0,50
13:40 16,8 14,4   Calm 17,7 1002,3 86 0,50
13:51 16,5 14,1   Calm 11,3 1002,3 86 0,50
14:01 16,5 14,1   Calm   1002,3 86 0,30
14:11 16,9 14,5   Calm   1002,3 86 -
14:22 17,4 14,9   Calm 17,7 1001,2 85 -
14:32 17,9 15,3   Calm 19,3 1001,2 85 -
14:42 18,1 15,4   Calm 19,3 1001,2 84 -
14:53 18,0 15,1   Calm 14,5 1001,2 83 -
15:03 18,3 15,4   Calm 14,5 1001,2 83 -
15:13 18,2 15,3   Calm 20,9 1001,2 83 -
15:24 18,1 15,2   Calm 17,7 1001,2 83 -
15:34 17,9 15,2   Calm   1001,2 84 -
15:45 17,6 15,0   Calm   1001,2 84 -
15:55 17,4 14,9   Calm   1001,2 85 -
16:05 17,4 15,0   Calm   1001,2 86 -
16:16 17,3 14,9   Calm   1001,2 86 0,30
16:26 17,2 14,8   Calm   1001,2 86 0,30
16:37 17,1 14,7   Calm   1001,2 86 0,30
16:47 17,0 14,6   Calm   1001,2 86 0,30
16:57 16,9 14,5   Calm   1001,2 86 1,00
17:08 16,8 14,3   Calm   1001,2 85 1,50
17:18 16,8 14,3   Calm   1001,2 85 1,50
17:28 16,8 14,3   Calm   1000,2 85 1,50
17:39 16,8 14,1   Calm   1000,2 84 1,50
17:49 16,9 14,2   Calm   1000,2 84 0,80
18:00 17,1 14,2   Calm   1000,2 83 -
18:10 17,2 14,3   Calm 12,9 1000,2 83 -
18:21 17,3 14,4   Calm 14,5 1000,2 83 -
18:31 17,2 14,3   Calm   1000,2 83 -
18:42 17,2 14,3   Calm   1000,2 83 -
18:52 17,1 14,2   Calm   1000,2 83 -
19:02 16,9 14,0   Calm 12,9 1000,2 83 -
19:13 16,9 14,0   Calm 12,9 999,2 83 -
19:23 16,9 14,0   Calm   999,2 83 -
19:33 16,9 14,0   Calm   999,2 83 -
19:43 16,8 13,9   Calm 11,3 999,2 83 -
19:53 16,8 13,9   Calm   999,2 83 -
20:04 16,8 13,9   Calm   999,2 83 -
20:14 16,7 13,8   Calm   999,2 83 -
20:25 16,6 13,7   Calm   999,2 83 -
20:35 16,6 13,5   Calm 12,9 999,2 82 -
Daily Summary for Tuesday Jun 18 2019
Time Temp. ( °C ) Dew pt. ( °C ) Wind ( km/h ) from Gust ( km/h ) Pressure ( hPa ) Humid.( % ) Rainrate ( cm )
High20,9 15,4 0,0 ( 0/0 ) 20,9 1005,3 86 1,50
Average15,9 11,8 0,0 Calm #120/120 2,7 1002,7 78 1,30
Low12,3 8,9 -   0,0 999,2 47 -
Daily Tabular details for Tuesday Jun 18 2019
Time Temp. ( °C ) Dew pt. ( °C ) Wind ( km/h ) from Gust ( km/h ) Pressure ( hPa ) Humid.( % ) Rainrate ( cm )
00:04 13,9 10,7   Calm   1005,3 81 -
00:15 13,8 10,4   Calm   1005,3 80 -
00:25 13,8 10,4   Calm   1005,3 80 -
00:35 13,7 10,4   Calm   1005,3 80 -
00:45 13,5 10,1   Calm   1005,3 80 -
00:56 13,4 10,0   Calm   1005,3 80 -
01:06 13,3 9,9   Calm   1005,3 80 -
01:16 13,2 9,8   Calm   1005,3 80 -
01:27 13,0 9,6   Calm   1004,3 80 -
01:37 12,9 9,7   Calm   1004,3 81 -
01:48 12,9 9,7   Calm   1004,3 81 -
01:58 13,0 9,6   Calm   1004,3 80 -
02:08 13,0 9,6   Calm   1004,3 80 -
02:18 12,8 9,6   Calm   1004,3 81 -
02:29 12,7 9,5   Calm   1004,3 81 -
02:39 12,6 9,4   Calm   1004,3 81 -
02:49 12,4 9,6   Calm   1004,3 83 -
02:59 12,3 9,5   Calm   1004,3 83 -
03:10 12,3 9,5   Calm   1004,3 83 -
03:20 12,5 9,5   Calm   1004,3 82 -
03:30 12,8 9,7   Calm   1004,3 81 -
03:41 12,9 9,3   Calm   1004,3 79 -
03:51 13,0 9,3   Calm   1004,3 78 -
04:01 13,0 9,3   Calm   1004,3 78 -
04:12 12,9 9,3   Calm   1004,3 79 -
04:22 12,9 9,0   Calm   1004,3 77 -
04:32 13,0 9,3   Calm   1004,3 78 -
04:42 13,0 9,3   Calm   1004,3 78 -
04:52 12,9 9,0   Calm   1003,3 77 -
05:02 12,8 9,2   Calm   1003,3 79 -
05:13 12,7 9,3   Calm   1003,3 80 -
05:23 12,5 9,5   Calm   1004,3 82 -
05:34 12,4 9,6   Calm   1004,3 83 -
05:44 12,3 9,5   Calm   1004,3 83 -
05:54 12,4 9,8   Calm   1003,3 84 -
06:05 12,5 9,9   Calm   1003,3 84 -
06:15 12,8 10,2   Calm   1003,3 84 -
06:25 12,9 10,1   Calm   1004,3 83 -
06:36 13,2 10,4   Calm   1004,3 83 -
06:46 13,5 10,5   Calm   1003,3 82 -
06:57 13,7 10,1   Calm   1004,3 79 -
07:07 13,9 10,7   Calm   1004,3 81 -
07:17 14,0 10,8   Calm   1003,3 81 -
07:28 14,1 10,7   Calm   1003,3 80 -
07:39 14,5 11,0   Calm   1003,3 79 -
07:49 14,8 10,8   Calm   1004,3 77 -
07:59 15,0 10,4   Calm   1003,3 74 -
08:09 15,2 10,8   Calm   1003,3 75 -
08:20 15,6 10,4   Calm   1004,3 71 -
08:30 16,1 10,0   Calm   1003,3 67 -
08:40 16,5 10,3   Calm   1003,3 66 -
08:50 16,9 9,8   Calm   1003,3 63 -
09:01 17,4 11,0   Calm   1003,3 66 -
09:11 17,8 11,0   Calm   1003,3 64 -
09:22 18,5 10,6   Calm   1003,3 60 -
09:32 19,7 10,0   Calm   1003,3 53 -
09:42 20,2 9,6   Calm   1003,3 50 -
09:52 19,7 9,3   Calm 12,9 1003,3 51 -
10:03 19,6 10,4   Calm 12,9 1003,3 55 -
10:13 19,8 10,8   Calm   1003,3 56 -
10:24 20,2 9,4   Calm   1003,3 50 -
10:34 20,6 8,9   Calm   1003,3 47 -
10:44 20,9 9,2   Calm   1003,3 47 -
10:55 20,9 9,4   Calm 14,5 1003,3 47 -
11:05 20,7 10,5   Calm   1003,3 52 -
11:16 20,1 10,2   Calm   1003,3 53 -
11:26 19,3 9,8   Calm 14,5 1003,3 54 -
11:37 18,4 12,3   Calm 12,9 1003,3 67 -
11:47 17,5 13,2   Calm 12,9 1003,3 76 -
11:57 17,0 13,1   Calm   1003,3 78 -
12:08 16,8 13,5   Calm   1003,3 81 0,30
12:18 17,1 14,0   Calm   1003,3 82 0,30
12:28 17,2 13,5   Calm   1002,3 79 0,30
12:38 17,4 14,1   Calm   1002,3 81 0,30
12:48 17,3 14,2   Calm   1003,3 82 0,30
12:59 17,1 14,2   Calm   1003,3 83 -
13:09 17,0 14,3   Calm   1003,3 84 -
13:19 16,6 14,1   Calm   1002,3 85 0,30
13:30 16,8 14,4   Calm 17,7 1002,3 86 0,50
13:40 16,8 14,4   Calm 17,7 1002,3 86 0,50
13:51 16,5 14,1   Calm 11,3 1002,3 86 0,50
14:01 16,5 14,1   Calm   1002,3 86 0,30
14:11 16,9 14,5   Calm   1002,3 86 -
14:22 17,4 14,9   Calm 17,7 1001,2 85 -
14:32 17,9 15,3   Calm 19,3 1001,2 85 -
14:42 18,1 15,4   Calm 19,3 1001,2 84 -
14:53 18,0 15,1   Calm 14,5 1001,2 83 -
15:03 18,3 15,4   Calm 14,5 1001,2 83 -
15:13 18,2 15,3   Calm 20,9 1001,2 83 -
15:24 18,1 15,2   Calm 17,7 1001,2 83 -
15:34 17,9 15,2   Calm   1001,2 84 -
15:45 17,6 15,0   Calm   1001,2 84 -
15:55 17,4 14,9   Calm   1001,2 85 -
16:05 17,4 15,0   Calm   1001,2 86 -
16:16 17,3 14,9   Calm   1001,2 86 0,30
16:26 17,2 14,8   Calm   1001,2 86 0,30
16:37 17,1 14,7   Calm   1001,2 86 0,30
16:47 17,0 14,6   Calm   1001,2 86 0,30
16:57 16,9 14,5   Calm   1001,2 86 1,00
17:08 16,8 14,3   Calm   1001,2 85 1,50
17:18 16,8 14,3   Calm   1001,2 85 1,50
17:28 16,8 14,3   Calm   1000,2 85 1,50
17:39 16,8 14,1   Calm   1000,2 84 1,50
17:49 16,9 14,2   Calm   1000,2 84 0,80
18:00 17,1 14,2   Calm   1000,2 83 -
18:10 17,2 14,3   Calm 12,9 1000,2 83 -
18:21 17,3 14,4   Calm 14,5 1000,2 83 -
18:31 17,2 14,3   Calm   1000,2 83 -
18:42 17,2 14,3   Calm   1000,2 83 -
18:52 17,1 14,2   Calm   1000,2 83 -
19:02 16,9 14,0   Calm 12,9 1000,2 83 -
19:13 16,9 14,0   Calm 12,9 999,2 83 -
19:23 16,9 14,0   Calm   999,2 83 -
19:33 16,9 14,0   Calm   999,2 83 -
19:43 16,8 13,9   Calm 11,3 999,2 83 -
19:53 16,8 13,9   Calm   999,2 83 -
20:04 16,8 13,9   Calm   999,2 83 -
20:14 16,7 13,8   Calm   999,2 83 -
20:25 16,6 13,7   Calm   999,2 83 -
20:35 16,6 13,5   Calm 12,9 999,2 82 -

Download your copy of this data-set  here

Our weather-data as stored at Weather Underground. Script developed by Jim McMurry. Adapted for the template by Leuven-Template.eu

You find our weather info also at:

Weather Underground

Equipment we use:

Weather-station
Oregon WMR928

Weather-server
ALIX_1D

Provider
Meteohub

Oregon WMR928

ALIX_1D

Meteohub



Kenley Weather Cam Time Lapse

Original Kenley Weather needs Flash

Main Web Site

Outdoor Temp 1 and 2

Kenley Radiation

Graphs/Charts